| time (UTC) | temp F | wind direction | speed MPH | gust MPH | rain 1hr in | rain 24hr in | rain mn in | humidity % | barometer mb |
| 20260903164204 | 72 | 263 | 7.0 | 11.0 | 0.00 | 0.00 | 0.00 | 35 | 1015.1 |
| 20260903163204 | 71 | 286 | 8.0 | 13.0 | 0.00 | 0.00 | 0.00 | 33 | 1015.1 |
| 20260903162704 | 71 | 303 | 9.0 | 13.0 | 0.00 | 0.00 | 0.00 | 34 | 1015.2 |
| 20260903162204 | 71 | 295 | 9.0 | 12.0 | 0.00 | 0.00 | 0.00 | 34 | 1015.1 |
| 20260903161704 | 71 | 307 | 9.0 | 12.0 | 0.00 | 0.00 | 0.00 | 35 | 1015.1 |
| 20260903161204 | 71 | 288 | 8.0 | 11.0 | 0.00 | 0.00 | 0.00 | 36 | 1015.2 |
| 20260903160704 | 71 | 300 | 6.0 | 9.0 | 0.00 | 0.00 | 0.00 | 36 | 1015.2 |
| 20260903155204 | 70 | 325 | 1.0 | 4.0 | 0.00 | 0.00 | 0.00 | 35 | 1015.2 |
| 20260903154704 | 69 | 325 | 2.0 | 4.0 | 0.00 | 0.00 | 0.00 | 35 | 1015.2 |
| 20260903154204 | 69 | 325 | 2.0 | 3.0 | 0.00 | 0.00 | 0.00 | 35 | 1015.2 |
| 20260903153704 | 68 | 325 | 1.0 | 3.0 | 0.00 | 0.00 | 0.00 | 35 | 1015.2 |
| 20260903153205 | 68 | 325 | 1.0 | 4.0 | 0.00 | 0.00 | 0.00 | 36 | 1015.3 |
| 20260903152704 | 67 | 325 | 2.0 | 4.0 | 0.00 | 0.00 | 0.00 | 36 | 1015.2 |
| 20260903152204 | 66 | 325 | 2.0 | 4.0 | 0.00 | 0.00 | 0.00 | 37 | 1015.2 |
| 20260903151704 | 66 | 325 | 2.0 | 4.0 | 0.00 | 0.00 | 0.00 | 37 | 1015.2 |
| 20260903151204 | 66 | 325 | 2.0 | 4.0 | 0.00 | 0.00 | 0.00 | 38 | 1015.2 |
| 20260903150704 | 65 | 325 | 1.0 | 3.0 | 0.00 | 0.00 | 0.00 | 39 | 1015.2 |
| 20260903150204 | 64 | 325 | 1.0 | 3.0 | 0.00 | 0.00 | 0.00 | 41 | 1015.2 |
| 20260903145704 | 64 | 325 | 1.0 | 3.0 | 0.00 | 0.00 | 0.00 | 41 | 1015.3 |
| 20260903145204 | 63 | 325 | 1.0 | 3.0 | 0.00 | 0.00 | 0.00 | 42 | 1015.3 |
| 20260903144704 | 63 | 325 | 2.0 | 3.0 | 0.00 | 0.00 | 0.00 | 43 | 1015.2 |
| 20260903144204 | 62 | 325 | 2.0 | 4.0 | 0.00 | 0.00 | 0.00 | 43 | 1015.2 |
| 20260903143704 | 62 | 324 | 2.0 | 5.0 | 0.00 | 0.00 | 0.00 | 44 | 1015.1 |
| 20260903142205 | 60 | 324 | 3.0 | 5.0 | 0.00 | 0.00 | 0.00 | 47 | 1014.9 |
| 20260903141704 | 60 | 324 | 4.0 | 5.0 | 0.00 | 0.00 | 0.00 | 47 | 1015.0 |
| 20260903141205 | 59 | 324 | 4.0 | 6.0 | 0.00 | 0.00 | 0.00 | 49 | 1014.9 |
| 20260903135206 | 57 | 323 | 4.0 | 6.0 | 0.00 | 0.00 | 0.00 | 53 | 1014.6 |
| 20260903134704 | 56 | 323 | 4.0 | 6.0 | 0.00 | 0.00 | 0.00 | 54 | 1014.6 |
| 20260903134204 | 56 | 323 | 4.0 | 5.0 | 0.00 | 0.00 | 0.00 | 55 | 1014.6 |
| 20260903133704 | 56 | 323 | 3.0 | 5.0 | 0.00 | 0.00 | 0.00 | 56 | 1014.5 |
| 20260903133205 | 55 | 323 | 3.0 | 5.0 | 0.00 | 0.00 | 0.00 | 56 | 1014.5 |
| 20260903132704 | 55 | 323 | 3.0 | 4.0 | 0.00 | 0.00 | 0.00 | 56 | 1014.5 |
| 20260903132204 | 55 | 323 | 3.0 | 5.0 | 0.00 | 0.00 | 0.00 | 56 | 1014.6 |
| 20260903131704 | 55 | 323 | 2.0 | 5.0 | 0.00 | 0.00 | 0.00 | 56 | 1014.6 |
| 20260903130704 | 55 | 323 | 3.0 | 5.0 | 0.00 | 0.00 | 0.00 | 55 | 1014.7 |
| 20260903125704 | 56 | 323 | 4.0 | 5.0 | 0.00 | 0.00 | 0.00 | 55 | 1014.6 |
| 20260903125206 | 56 | 323 | 4.0 | 6.0 | 0.00 | 0.00 | 0.00 | 55 | 1014.6 |
| 20260903124705 | 56 | 323 | 3.0 | 6.0 | 0.00 | 0.00 | 0.00 | 55 | 1014.6 |
| 20260903124204 | 56 | 323 | 4.0 | 6.0 | 0.00 | 0.00 | 0.00 | 56 | 1014.6 |
| 20260903123205 | 56 | 323 | 3.0 | 5.0 | 0.00 | 0.00 | 0.00 | 55 | 1014.7 |
| 20260903122705 | 56 | 323 | 3.0 | 5.0 | 0.00 | 0.00 | 0.00 | 54 | 1014.6 |
| 20260903122204 | 56 | 323 | 3.0 | 5.0 | 0.00 | 0.00 | 0.00 | 53 | 1014.7 |
| 20260903121705 | 57 | 323 | 4.0 | 5.0 | 0.00 | 0.00 | 0.00 | 52 | 1014.7 |
| 20260903121204 | 57 | 323 | 4.0 | 4.0 | 0.00 | 0.00 | 0.00 | 51 | 1014.7 |
| 20260903120704 | 58 | 323 | 3.0 | 6.0 | 0.00 | 0.00 | 0.00 | 47 | 1014.7 |
| 20260903115704 | 58 | 323 | 3.0 | 6.0 | 0.00 | 0.00 | 0.00 | 42 | 1014.7 |
| 20260903115204 | 58 | 323 | 4.0 | 8.0 | 0.00 | 0.00 | 0.00 | 42 | 1014.9 |
| 20260903114204 | 58 | 323 | 4.0 | 8.0 | 0.00 | 0.00 | 0.00 | 44 | 1014.9 |
| 20260903113704 | 57 | 324 | 4.0 | 6.0 | 0.00 | 0.00 | 0.00 | 47 | 1014.9 |
| 20260903113204 | 57 | 323 | 4.0 | 6.0 | 0.00 | 0.00 | 0.00 | 47 | 1015.0 |
| 20260903112705 | 57 | 323 | 4.0 | 5.0 | 0.00 | 0.00 | 0.00 | 48 | 1014.9 |
| 20260903112204 | 58 | 323 | 3.0 | 6.0 | 0.00 | 0.00 | 0.00 | 51 | 1014.9 |
| 20260903111704 | 58 | 323 | 3.0 | 10.0 | 0.00 | 0.00 | 0.00 | 51 | 1014.9 |
| 20260903111204 | 58 | 323 | 4.0 | 10.0 | 0.00 | 0.00 | 0.00 | 51 | 1014.9 |
| 20260903110706 | 58 | 323 | 6.0 | 10.0 | 0.00 | 0.00 | 0.00 | 52 | 1014.9 |
| 20260903110204 | 58 | 323 | 6.0 | 9.0 | 0.00 | 0.00 | 0.00 | 52 | 1014.9 |
| 20260903105704 | 58 | 317 | 5.0 | 10.0 | 0.00 | 0.00 | 0.00 | 52 | 1014.9 |
| 20260903105204 | 58 | 324 | 6.0 | 12.0 | 0.00 | 0.00 | 0.00 | 52 | 1014.9 |
| 20260903104705 | 59 | 326 | 7.0 | 12.0 | 0.00 | 0.00 | 0.00 | 52 | 1014.9 |
| 20260903104205 | 59 | 305 | 7.0 | 13.0 | 0.00 | 0.00 | 0.00 | 52 | 1015.0 |
| 20260903103704 | 59 | 309 | 8.0 | 13.0 | 0.00 | 0.00 | 0.00 | 52 | 1015.0 |
| 20260903103204 | 59 | 319 | 9.0 | 13.0 | 0.00 | 0.00 | 0.00 | 52 | 1015.0 |
| 20260903102704 | 59 | 311 | 9.0 | 14.0 | 0.00 | 0.00 | 0.00 | 52 | 1015.0 |
| 20260903102204 | 59 | 300 | 10.0 | 17.0 | 0.00 | 0.00 | 0.00 | 51 | 1015.2 |
| 20260903101705 | 59 | 316 | 10.0 | 17.0 | 0.00 | 0.00 | 0.00 | 51 | 1015.2 |
| 20260903100704 | 59 | 304 | 10.0 | 16.0 | 0.00 | 0.00 | 0.00 | 51 | 1015.1 |
| 20260903100204 | 59 | 304 | 10.0 | 16.0 | 0.00 | 0.00 | 0.00 | 51 | 1015.1 |
| 20260903095204 | 59 | 294 | 10.0 | 14.0 | 0.00 | 0.00 | 0.00 | 51 | 1015.1 |
| 20260903094704 | 59 | 307 | 10.0 | 16.0 | 0.00 | 0.00 | 0.00 | 51 | 1015.1 |
| 20260903094204 | 59 | 312 | 10.0 | 16.0 | 0.00 | 0.00 | 0.00 | 51 | 1015.1 |
| 20260903093704 | 60 | 299 | 10.0 | 16.0 | 0.00 | 0.00 | 0.00 | 51 | 1015.1 |
| 20260903093204 | 60 | 313 | 9.0 | 12.0 | 0.00 | 0.00 | 0.00 | 50 | 1015.3 |
| 20260903092704 | 60 | 314 | 8.0 | 12.0 | 0.00 | 0.00 | 0.00 | 50 | 1015.4 |
| 20260903092204 | 60 | 303 | 7.0 | 12.0 | 0.00 | 0.00 | 0.00 | 50 | 1015.4 |
| 20260903091704 | 59 | 302 | 5.0 | 9.0 | 0.00 | 0.00 | 0.00 | 50 | 1015.4 |
| 20260903091206 | 59 | 316 | 4.0 | 9.0 | 0.00 | 0.00 | 0.00 | 49 | 1015.5 |
| 20260903090704 | 59 | 344 | 5.0 | 9.0 | 0.00 | 0.00 | 0.00 | 50 | 1015.7 |
| 20260903090205 | 59 | 346 | 6.0 | 9.0 | 0.00 | 0.00 | 0.00 | 50 | 1015.7 |
| 20260903085704 | 59 | 309 | 5.0 | 8.0 | 0.00 | 0.00 | 0.00 | 51 | 1015.9 |
| 20260903084705 | 59 | 327 | 5.0 | 11.0 | 0.00 | 0.00 | 0.00 | 52 | 1016.0 |
| 20260903084205 | 60 | 326 | 7.0 | 11.0 | 0.00 | 0.00 | 0.00 | 52 | 1016.1 |
| 20260903082704 | 60 | 333 | 6.0 | 12.0 | 0.00 | 0.00 | 0.00 | 53 | 1016.1 |
| 20260903081704 | 60 | 323 | 8.0 | 12.0 | 0.00 | 0.00 | 0.00 | 53 | 1016.1 |
| 20260903081204 | 60 | 315 | 7.0 | 11.0 | 0.00 | 0.00 | 0.00 | 54 | 1016.1 |
| 20260903080705 | 60 | 315 | 8.0 | 11.0 | 0.00 | 0.00 | 0.00 | 55 | 1016.2 |
| 20260903075204 | 60 | 313 | 6.0 | 10.0 | 0.00 | 0.00 | 0.00 | 56 | 1016.2 |
| 20260903074704 | 60 | 316 | 6.0 | 10.0 | 0.00 | 0.00 | 0.00 | 56 | 1016.3 |
| 20260903074204 | 60 | 316 | 6.0 | 12.0 | 0.00 | 0.00 | 0.00 | 56 | 1016.1 |
| 20260903073205 | 60 | 305 | 7.0 | 12.0 | 0.00 | 0.00 | 0.00 | 56 | 1016.2 |
| 20260903072704 | 60 | 315 | 6.0 | 10.0 | 0.00 | 0.00 | 0.00 | 56 | 1016.2 |
| 20260903072204 | 60 | 317 | 7.0 | 10.0 | 0.00 | 0.00 | 0.00 | 55 | 1016.2 |
| 20260903071705 | 60 | 303 | 7.0 | 10.0 | 0.00 | 0.00 | 0.00 | 54 | 1016.2 |
| 20260903071204 | 59 | 302 | 6.0 | 9.0 | 0.00 | 0.00 | 0.00 | 54 | 1016.3 |
| 20260903070704 | 59 | 305 | 5.0 | 9.0 | 0.00 | 0.00 | 0.00 | 55 | 1016.3 |
| 20260903065704 | 59 | 307 | 5.0 | 5.0 | 0.00 | 0.00 | 0.00 | 56 | 1016.3 |
| 20260903065204 | 59 | 309 | 4.0 | 5.0 | 0.00 | 0.00 | 0.00 | 55 | 1016.3 |
| 20260903064704 | 59 | 309 | 4.0 | 5.0 | 0.00 | 0.00 | 0.00 | 55 | 1016.3 |
| 20260903064204 | 59 | 310 | 4.0 | 6.0 | 0.00 | 0.00 | 0.00 | 53 | 1016.4 |
| 20260903063705 | 59 | 310 | 4.0 | 6.0 | 0.00 | 0.00 | 0.00 | 52 | 1016.4 |
| 20260903063204 | 59 | 311 | 4.0 | 6.0 | 0.00 | 0.00 | 0.00 | 51 | 1016.5 |
| 20260903062704 | 60 | 311 | 5.0 | 6.0 | 0.00 | 0.00 | 0.00 | 50 | 1016.5 |
| 20260903062205 | 60 | 313 | 5.0 | 6.0 | 0.00 | 0.00 | 0.00 | 48 | 1016.5 |
| 20260903061704 | 60 | 315 | 5.0 | 6.0 | 0.00 | 0.00 | 0.00 | 48 | 1016.5 |
| 20260903061204 | 60 | 315 | 4.0 | 5.0 | 0.00 | 0.00 | 0.00 | 46 | 1016.5 |
| 20260903060704 | 60 | 315 | 3.0 | 5.0 | 0.00 | 0.00 | 0.00 | 46 | 1016.6 |
| 20260903060204 | 61 | 315 | 3.0 | 5.0 | 0.00 | 0.00 | 0.00 | 45 | 1016.7 |
| 20260903055204 | 61 | 315 | 3.0 | 5.0 | 0.00 | 0.00 | 0.00 | 43 | 1016.7 |
| 20260903054705 | 62 | 315 | 3.0 | 8.0 | 0.00 | 0.00 | 0.00 | 43 | 1016.8 |
| 20260903054204 | 62 | 315 | 4.0 | 8.0 | 0.00 | 0.00 | 0.00 | 40 | 1016.7 |
| 20260903053704 | 62 | 315 | 5.0 | 8.0 | 0.00 | 0.00 | 0.00 | 38 | 1016.7 |
| 20260903053204 | 64 | 314 | 4.0 | 6.0 | 0.00 | 0.00 | 0.00 | 35 | 1016.7 |
| 20260903052704 | 64 | 76 | 3.0 | 5.0 | 0.00 | 0.00 | 0.00 | 35 | 1016.8 |
| 20260903052204 | 64 | 76 | 3.0 | 5.0 | 0.00 | 0.00 | 0.00 | 35 | 1016.7 |
| 20260903051704 | 65 | 77 | 3.0 | 4.0 | 0.00 | 0.00 | 0.00 | 34 | 1016.7 |
| 20260903051204 | 65 | 77 | 3.0 | 4.0 | 0.00 | 0.00 | 0.00 | 34 | 1016.7 |
| 20260903050705 | 65 | 77 | 3.0 | 5.0 | 0.00 | 0.00 | 0.00 | 33 | 1016.6 |
| 20260903050204 | 65 | 78 | 3.0 | 5.0 | 0.00 | 0.00 | 0.00 | 33 | 1016.6 |
| 20260903045704 | 65 | 78 | 3.0 | 4.0 | 0.00 | 0.00 | 0.00 | 33 | 1016.7 |
| 20260903045204 | 65 | 80 | 3.0 | 4.0 | 0.00 | 0.00 | 0.00 | 33 | 1016.7 |
| 20260903044704 | 65 | 80 | 3.0 | 4.0 | 0.00 | 0.00 | 0.00 | 33 | 1016.7 |
| 20260903044204 | 65 | 80 | 3.0 | 4.0 | 0.00 | 0.00 | 0.00 | 33 | 1016.7 |
| 20260903043704 | 66 | 80 | 2.0 | 4.0 | 0.00 | 0.00 | 0.00 | 33 | 1016.8 |
| 20260903043204 | 66 | 80 | 2.0 | 4.0 | 0.00 | 0.00 | 0.00 | 34 | 1016.7 |
| 20260903042704 | 66 | 80 | 2.0 | 7.0 | 0.00 | 0.00 | 0.00 | 34 | 1016.7 |
| 20260903042204 | 67 | 80 | 3.0 | 7.0 | 0.00 | 0.00 | 0.00 | 34 | 1016.6 |
| 20260903041704 | 67 | 81 | 3.0 | 7.0 | 0.00 | 0.00 | 0.00 | 33 | 1016.6 |
| 20260903040704 | 67 | 47 | 3.0 | 6.0 | 0.00 | 0.00 | 0.00 | 33 | 1016.6 |
| 20260903040204 | 67 | 47 | 4.0 | 10.0 | 0.00 | 0.00 | 0.00 | 33 | 1016.6 |
| 20260903035704 | 68 | 47 | 4.0 | 10.0 | 0.00 | 0.00 | 0.00 | 32 | 1016.5 |
| 20260903035205 | 68 | 57 | 4.0 | 10.0 | 0.00 | 0.00 | 0.00 | 32 | 1016.4 |
| 20260903034705 | 68 | 51 | 3.0 | 9.0 | 0.00 | 0.00 | 0.00 | 32 | 1016.3 |
| 20260903034204 | 69 | 54 | 4.0 | 9.0 | 0.00 | 0.00 | 0.00 | 32 | 1016.2 |
| 20260903033704 | 69 | 57 | 4.0 | 7.0 | 0.00 | 0.00 | 0.00 | 32 | 1016.2 |
| 20260903033204 | 69 | 51 | 4.0 | 7.0 | 0.00 | 0.00 | 0.00 | 32 | 1016.3 |
| 20260903032704 | 69 | 49 | 3.0 | 7.0 | 0.00 | 0.00 | 0.00 | 31 | 1016.2 |
| 20260903032204 | 69 | 49 | 4.0 | 7.0 | 0.00 | 0.00 | 0.00 | 31 | 1016.2 |
| 20260903031205 | 70 | 60 | 3.0 | 7.0 | 0.00 | 0.00 | 0.00 | 30 | 1016.2 |
| 20260903030704 | 70 | 51 | 3.0 | 7.0 | 0.00 | 0.00 | 0.00 | 30 | 1016.2 |
| 20260903030204 | 71 | 3 | 2.0 | 6.0 | 0.00 | 0.00 | 0.00 | 31 | 1016.2 |
| 20260903025704 | 71 | 3 | 3.0 | 6.0 | 0.00 | 0.00 | 0.00 | 31 | 1016.1 |
| 20260903025204 | 71 | 3 | 3.0 | 9.0 | 0.00 | 0.00 | 0.00 | 31 | 1016.2 |
| 20260903024704 | 71 | 3 | 4.0 | 9.0 | 0.00 | 0.00 | 0.00 | 31 | 1016.1 |
| 20260903024204 | 72 | 3 | 4.0 | 10.0 | 0.00 | 0.00 | 0.00 | 31 | 1016.1 |
| 20260903022704 | 73 | 30 | 5.0 | 12.0 | 0.00 | 0.00 | 0.00 | 31 | 1016.0 |
| 20260903022204 | 73 | 358 | 6.0 | 13.0 | 0.00 | 0.00 | 0.00 | 31 | 1016.0 |
| 20260903021704 | 73 | 358 | 6.0 | 13.0 | 0.00 | 0.00 | 0.00 | 31 | 1016.0 |
| 20260903021204 | 73 | 358 | 6.0 | 13.0 | 0.00 | 0.00 | 0.00 | 30 | 1016.0 |
| 20260903020704 | 74 | 358 | 7.0 | 13.0 | 0.00 | 0.00 | 0.00 | 30 | 1016.0 |
| 20260903020204 | 74 | 358 | 6.0 | 13.0 | 0.00 | 0.00 | 0.00 | 30 | 1015.9 |
| 20260903015704 | 75 | 358 | 5.0 | 13.0 | 0.00 | 0.00 | 0.00 | 30 | 1015.9 |
| 20260903015204 | 75 | 358 | 5.0 | 12.0 | 0.00 | 0.00 | 0.00 | 29 | 1015.7 |
| 20260903014704 | 76 | 358 | 5.0 | 12.0 | 0.00 | 0.00 | 0.00 | 29 | 1015.7 |
| 20260903014204 | 76 | 358 | 4.0 | 13.0 | 0.00 | 0.00 | 0.00 | 28 | 1015.7 |
| 20260903013704 | 76 | 358 | 5.0 | 13.0 | 0.00 | 0.00 | 0.00 | 28 | 1015.6 |
| 20260903013204 | 76 | 358 | 7.0 | 13.0 | 0.00 | 0.00 | 0.00 | 27 | 1015.6 |
| 20260903012704 | 77 | 358 | 7.0 | 12.0 | 0.00 | 0.00 | 0.00 | 27 | 1015.6 |
| 20260903012204 | 78 | 75 | 6.0 | 12.0 | 0.00 | 0.00 | 0.00 | 25 | 1015.5 |
| 20260903011705 | 78 | 53 | 5.0 | 13.0 | 0.00 | 0.00 | 0.00 | 24 | 1015.5 |
| 20260903010704 | 79 | 82 | 6.0 | 13.0 | 0.00 | 0.00 | 0.00 | 23 | 1015.6 |
| 20260903005705 | 78 | 298 | 6.0 | 13.0 | 0.00 | 0.00 | 0.00 | 29 | 1015.6 |
| 20260903005204 | 78 | 296 | 8.0 | 14.0 | 0.00 | 0.00 | 0.00 | 29 | 1015.4 |
| 20260903004704 | 78 | 270 | 10.0 | 16.0 | 0.00 | 0.00 | 0.00 | 29 | 1015.4 |
| 20260903004204 | 78 | 286 | 11.0 | 17.0 | 0.00 | 0.00 | 0.00 | 29 | 1015.3 |
| 20260903003704 | 78 | 287 | 11.0 | 17.0 | 0.00 | 0.00 | 0.00 | 29 | 1015.3 |
| 20260903003204 | 79 | 321 | 10.0 | 21.0 | 0.00 | 0.00 | 0.00 | 28 | 1015.3 |
| 20260903002705 | 79 | 290 | 11.0 | 21.0 | 0.00 | 0.00 | 0.00 | 28 | 1015.2 |
| 20260903001704 | 79 | 358 | 14.0 | 20.0 | 0.00 | 0.00 | 0.00 | 29 | 1015.1 |
| 20260903000704 | 79 | 297 | 14.0 | 20.0 | 0.00 | 0.00 | 0.00 | 28 | 1015.2 |
| 20260903000204 | 79 | 302 | 14.0 | 20.0 | 0.00 | 0.00 | 0.00 | 27 | 1015.1 |
| 20260902234704 | 80 | 308 | 15.0 | 22.0 | 0.00 | 0.00 | 0.00 | 25 | 1015.1 |
| 20260902234204 | 80 | 312 | 14.0 | 21.0 | 0.00 | 0.00 | 0.00 | 25 | 1014.9 |
| 20260902233704 | 81 | 289 | 13.0 | 22.0 | 0.00 | 0.00 | 0.00 | 25 | 1015.0 |
| 20260902233205 | 81 | 301 | 14.0 | 22.0 | 0.00 | 0.00 | 0.00 | 25 | 1015.1 |
| 20260902231704 | 81 | 358 | 15.0 | 23.0 | 0.00 | 0.00 | 0.00 | 24 | 1015.0 |
| 20260902231204 | 82 | 284 | 14.0 | 23.0 | 0.00 | 0.00 | 0.00 | 23 | 1015.1 |
| 20260902230205 | 82 | 298 | 14.0 | 22.0 | 0.00 | 0.00 | 0.00 | 21 | 1015.2 |
| 20260902225704 | 82 | 285 | 13.0 | 22.0 | 0.00 | 0.00 | 0.00 | 22 | 1015.2 |
| 20260902225204 | 82 | 293 | 14.0 | 22.0 | 0.00 | 0.00 | 0.00 | 21 | 1015.2 |
| 20260902224704 | 82 | 298 | 13.0 | 19.0 | 0.00 | 0.00 | 0.00 | 21 | 1015.3 |
| 20260902224204 | 83 | 287 | 12.0 | 19.0 | 0.00 | 0.00 | 0.00 | 19 | 1015.2 |
| 20260902223704 | 83 | 287 | 12.0 | 19.0 | 0.00 | 0.00 | 0.00 | 20 | 1015.3 |
| 20260902221704 | 83 | 303 | 12.0 | 22.0 | 0.00 | 0.00 | 0.00 | 18 | 1015.4 |
| 20260902221204 | 83 | 307 | 12.0 | 22.0 | 0.00 | 0.00 | 0.00 | 17 | 1015.6 |
| 20260902220705 | 83 | 320 | 13.0 | 22.0 | 0.00 | 0.00 | 0.00 | 18 | 1015.5 |
| 20260902220204 | 82 | 304 | 12.0 | 17.0 | 0.00 | 0.00 | 0.00 | 17 | 1015.5 |
| 20260902215704 | 82 | 297 | 11.0 | 17.0 | 0.00 | 0.00 | 0.00 | 17 | 1015.7 |
| 20260902214704 | 83 | 275 | 9.0 | 15.0 | 0.00 | 0.00 | 0.00 | 16 | 1015.9 |
| 20260902214204 | 83 | 274 | 7.0 | 16.0 | 0.00 | 0.00 | 0.00 | 16 | 1015.9 |
| 20260902213704 | 82 | 312 | 9.0 | 16.0 | 0.00 | 0.00 | 0.00 | 17 | 1016.0 |
| 20260902213205 | 82 | 287 | 10.0 | 16.0 | 0.00 | 0.00 | 0.00 | 17 | 1016.1 |
| 20260902212204 | 82 | 299 | 7.0 | 14.0 | 0.00 | 0.00 | 0.00 | 17 | 1016.1 |
| 20260902211705 | 83 | 340 | 8.0 | 15.0 | 0.00 | 0.00 | 0.00 | 16 | 1016.2 |
| 20260902211204 | 82 | 327 | 8.0 | 15.0 | 0.00 | 0.00 | 0.00 | 16 | 1016.2 |
| 20260902210704 | 83 | 279 | 8.0 | 14.0 | 0.00 | 0.00 | 0.00 | 16 | 1016.2 |
| 20260902210204 | 82 | 304 | 8.0 | 16.0 | 0.00 | 0.00 | 0.00 | 16 | 1016.3 |
| 20260902205704 | 82 | 324 | 9.0 | 16.0 | 0.00 | 0.00 | 0.00 | 17 | 1016.4 |
| 20260902205204 | 82 | 281 | 9.0 | 16.0 | 0.00 | 0.00 | 0.00 | 17 | 1016.3 |
| 20260902204704 | 82 | 321 | 8.0 | 16.0 | 0.00 | 0.00 | 0.00 | 16 | 1016.3 |
| 20260902204204 | 82 | 317 | 9.0 | 16.0 | 0.00 | 0.00 | 0.00 | 17 | 1016.4 |
| 20260902203704 | 82 | 290 | 6.0 | 16.0 | 0.00 | 0.00 | 0.00 | 17 | 1016.4 |
| 20260902203205 | 82 | 250 | 4.0 | 19.0 | 0.00 | 0.00 | 0.00 | 17 | 1016.5 |
| 20260902202204 | 83 | 230 | 10.0 | 19.0 | 0.00 | 0.00 | 0.00 | 17 | 1016.5 |
| 20260902201707 | 84 | 358 | 9.0 | 18.0 | 0.00 | 0.00 | 0.00 | 15 | 1016.4 |
| 20260902201206 | 84 | 213 | 6.0 | 18.0 | 0.00 | 0.00 | 0.00 | 16 | 1016.3 |
| 20260902200704 | 84 | 144 | 4.0 | 11.0 | 0.00 | 0.00 | 0.00 | 17 | 1016.5 |
| 20260902200204 | 84 | 171 | 3.0 | 10.0 | 0.00 | 0.00 | 0.00 | 16 | 1016.7 |
| 20260902195205 | 83 | 157 | 3.0 | 10.0 | 0.00 | 0.00 | 0.00 | 14 | 1016.7 |
| 20260902194704 | 83 | 75 | 4.0 | 9.0 | 0.00 | 0.00 | 0.00 | 13 | 1016.8 |
| 20260902194204 | 83 | 72 | 4.0 | 9.0 | 0.00 | 0.00 | 0.00 | 14 | 1016.8 |
| 20260902193704 | 83 | 74 | 3.0 | 9.0 | 0.00 | 0.00 | 0.00 | 14 | 1016.8 |
| 20260902192705 | 82 | 105 | 3.0 | 9.0 | 0.00 | 0.00 | 0.00 | 15 | 1017.1 |
| 20260902191704 | 82 | 154 | 4.0 | 8.0 | 0.00 | 0.00 | 0.00 | 15 | 1017.2 |
| 20260902190204 | 80 | 200 | 2.0 | 6.0 | 0.00 | 0.00 | 0.00 | 16 | 1017.2 |
| 20260902185705 | 81 | 199 | 2.0 | 6.0 | 0.00 | 0.00 | 0.00 | 16 | 1017.3 |
| 20260902184704 | 80 | 203 | 2.0 | 6.0 | 0.00 | 0.00 | 0.00 | 17 | 1017.4 |
| 20260902184205 | 80 | 203 | 2.0 | 6.0 | 0.00 | 0.00 | 0.00 | 17 | 1017.4 |
| 20260902183704 | 80 | 203 | 2.0 | 5.0 | 0.00 | 0.00 | 0.00 | 17 | 1017.4 |
| 20260902182704 | 78 | 202 | 2.0 | 6.0 | 0.00 | 0.00 | 0.00 | 18 | 1017.4 |
| 20260902182204 | 78 | 203 | 2.0 | 6.0 | 0.00 | 0.00 | 0.00 | 18 | 1017.4 |
| 20260902181704 | 78 | 199 | 2.0 | 6.0 | 0.00 | 0.00 | 0.00 | 17 | 1017.5 |
| 20260902181204 | 78 | 195 | 2.0 | 4.0 | 0.00 | 0.00 | 0.00 | 17 | 1017.5 |
| 20260902180704 | 78 | 195 | 2.0 | 5.0 | 0.00 | 0.00 | 0.00 | 18 | 1017.5 |
| 20260902180204 | 78 | 196 | 2.0 | 6.0 | 0.00 | 0.00 | 0.00 | 18 | 1017.5 |
| 20260902175704 | 77 | 196 | 2.0 | 6.0 | 0.00 | 0.00 | 0.00 | 17 | 1017.6 |
| 20260902174705 | 76 | 201 | 2.0 | 9.0 | 0.00 | 0.00 | 0.00 | 18 | 1017.5 |
| 20260902173205 | 75 | 152 | 3.0 | 8.0 | 0.00 | 0.00 | 0.00 | 19 | 1017.4 |
| 20260902172706 | 75 | 141 | 2.0 | 8.0 | 0.00 | 0.00 | 0.00 | 18 | 1017.4 |
| 20260902172204 | 75 | 136 | 2.0 | 8.0 | 0.00 | 0.00 | 0.00 | 19 | 1017.4 |
| 20260902171715 | 74 | 135 | 2.0 | 7.0 | 0.00 | 0.00 | 0.00 | 19 | 1017.2 |
| 20260902171213 | 74 | 134 | 2.0 | 6.0 | 0.00 | 0.00 | 0.00 | 20 | 1017.3 |
| 20260902165204 | 73 | 142 | 2.0 | 6.0 | 0.00 | 0.00 | 0.00 | 20 | 1017.1 |